Location: Heisler
(52.6701°N, 112.2239°W)
Time: 17:26:45
(UTC+00:00)

N. Korean satellite - Visible Passes

Search period start: 03 October 2022 00:00
Search period end: 13 October 2022 00:00
Orbit: 426 x 468 km, 97.3° (Epoch: 02 October)

Date Brightness Start Highest point End Pass type
(mag) Time Alt. Az. Time Alt. Az. Time Alt. Az.
04 Oct 8.4 12:23:22 10° NNE 12:26:20 31° E 12:29:18 10° SSE visible
05 Oct 9.7 11:48:26 10° ENE 11:50:06 13° E 11:51:45 10° ESE visible
06 Oct 7.1 12:43:51 10° NNE 12:47:05 56° E 12:50:18 10° S visible
07 Oct 9.2 12:08:14 10° NE 12:10:51 21° E 12:13:26 10° SSE visible
08 Oct 6.3 13:04:16 10° NNE 13:07:33 81° WNW 13:10:50 10° SSW visible
09 Oct 8.1 12:28:14 10° NNE 12:31:18 35° E 12:34:21 10° SSE visible
10 Oct 9.7 11:52:52 10° NE 11:54:49 15° E 11:56:46 10° SE visible
11 Oct 6.9 12:48:13 10° NNE 12:51:29 63° ESE 12:54:45 10° S visible
12 Oct 9.0 12:12:16 10° NE 12:14:59 24° E 12:17:43 10° SSE visible
